Lid_Strength_Index
10 11 11 12 12 12 12 13 14 14 14 14 15 16 16 16 16 17 16 16 16 16 15 15 15 15 16 16 15 15 15 15 17 15 14 14 15 16 16 16 16 16 16
12 13 14 13 13 14 14 13 14 14 14 15 15 16 16 16 16 16 16 15 15 15 15 15 15 16 16 15 15 15 15 15 16 17 16 16 17 16 17 17 17 17 17
13 13 13 13 13 13 13 14 14 14 15 16 16 16 16 16 16 15 15 15 15 15 15 15 15 16 16 16 16 16 16 16 16 17 17 17 17 17 18 17 18 18 17
13 13 13 13 13 14 14 14 15 15 16 16 16 16 15 15 15 15 15 15 15 15 14 14 15 15 15 16 16 16 16 16 16 17 18 18 18 18 18 19 20 18 19
13 13 14 14 14 15 15 16 17 17 16 16 16 15 15 14 15 15 15 15 15 15 14 14 14 14 14 14 15 15 15 16 17 18 18 19 19 19 20 20 21 20 19
13 14 14 15 16 17 17 17 17 17 17 16 16 15 15 15 13 13 13 14 14 14 14 14 14 14 13 13 13 13 15 16 17 18 18 20 19 19 20 20 21 22 23
14 15 15 16 17 17 17 18 18 17 16 16 16 16 15 15 13 12 11 13 14 14 14 14 14 14 14 15 13 12 13 13 13 16 18 18 19 19 20 20 21 21 22
14 15 16 16 17 17 17 17 17 16 16 16 16 16 16 16 13 12 11 12 13 13 14 14 15 15 15 15 16 16 15 15 15 15 17 17 18 18 19 19 21 23 23
14 14 15 15 16 16 17 17 16 16 17 17 17 16 17 15 13 12 12 13 13 13 13 14 14 15 14 13 15 17 16 16 14 13 15 16 15 16 18 21 23 25 26
14 14 14 15 15 15 16 16 16 17 16 17 16 16 16 16 14 12 12 13 14 14 13 14 14 14 14 13 14 15 17 16 17 17 17 16 18 21 20 22 23 26 26
14 14 14 14 15 15 15 16 17 17 18 19 18 17 17 16 15 13 12 13 14 14 15 15 15 13 12 12 11 14 15 14 16 18 19 20 22 22 22 22 23 24 26
18 18 19 19 19 18 20 20 20 20 19 18 19 17 17 17 16 14 12 12 12 14 15 15 14 12 12 11 11 11 11 12 17 20 21 22 22 23 23 23 23 23 23
20 21 22 22 20 20 20 19 19 20 19 18 18 17 16 15 16 14 13 13 12 13 13 13 12 11 11 12 11 11 12 14 20 22 22 21 22 22 23 24 24 23 23
22 22 22 22 21 21 20 19 19 19 19 18 17 17 17 17 17 17 17 17 16 15 15 15 14 12 11 12 13 12 12 18 20 21 21 21 23 24 24 24 25 24 25
23 23 22 21 21 20 19 19 18 18 18 18 18 18 18 18 16 14 13 13 15 15 16 17 17 16 15 14 14 16 19 20 21 21 23 24 24 24 24 24 24 25 26
23 22 22 21 22 21 21 21 17 16 15 14 13 14 14 13 13 12 11 11 11 11 12 13 15 17 16 15 17 18 20 21 20 22 23 23 24 24 23 23 24 25 26
25 24 24 23 23 23 23 24 24 20 17 16 15 15 15 15 14 13 13 12 12 12 14 13 13 14 16 16 17 18 19 20 21 22 23 23 23 23 23 23 24 25 25
26 25 25 26 26 25 25 25 25 25 24 22 18 17 16 15 15 15 14 14 16 16 15 15 14 13 16 16 16 17 18 21 22 22 22 22 23 23 24 24 24 26 26
26 26 26 26 26 26 26 25 25 24 24 23 22 20 19 18 17 16 16 19 20 20 19 18 16 15 14 15 16 17 18 21 21 22 22 22 23 24 24 24 25 26 27
27 26 27 27 27 27 26 26 26 25 25 25 24 24 23 21 21 22 21 21 21 21 20 19 18 17 16 15 15 16 19 21 21 21 22 23 23 23 24 25 25 26 27
28 28 28 28 28 28 27 27 27 27 27 26 26 24 20 22 25 24 24 23 23 22 21 20 19 19 17 16 18 19 20 20 21 22 23 24 24 24 23 24 25 26 27
29 29 29 29 28 28 28 28 28 28 28 28 27 26 22 25 25 25 24 23 22 22 21 21 21 20 19 17 18 19 20 21 22 22 23 23 23 23 24 25 25 27 28
31 31 29 29 29 29 29 29 29 29 29 28 28 27 27 26 26 25 25 24 23 22 21 21 21 21 20 19 19 19 20 21 21 21 22 22 23 24 24 25 27 28 28
31 31 31 30 30 30 30 30 29 29 29 29 28 28 27 27 26 25 25 24 23 22 21 22 22 21 21 20 19 19 19 19 19 19 20 22 23 24 25 26 26 28 28
32 31 32 32 32 31 31 30 30 30 29 29 28 28 27 26 26 25 24 23 22 22 22 22 21 21 20 20 20 19 17 18 19 19 20 21 23 24 25 26 28 29 29
33 33 33 32 32 32 31 31 30 30 30 29 28 28 27 26 25 24 24 23 22 21 21 21 20 19 19 19 19 17 18 18 20 20 20 21 23 25 26 27 29 28 29